Current Version              Previous Version:    01  02  03  04  05  06  07  08  09  10  11  12  13  14  15  16  17  18  19  20  21  22  23  24  25  26  27  28  29  30  
   31  32  33  34  35  36  37  38  39  40  41  42  43  44  45  46  47  48  49  50  51  52  53  54  55  56  57  58  59  60  

[Printable]
758
ASUS44 KEWX 300202
RWRTX
SOUTH TEXAS REGIONAL WEATHER ROUNDUP
NATIONAL WEATHER SERVICE AUSTIN/SAN ANTONIO TX
900 PM CDT FRI AUG 29 2014

NOTE: "FAIR" INDICATED FEW OR NO CLOUDS BELOW 12,000 FEET WITH NO
SIGNIFICANT WEATHER AND/OR OBSTRUCTIONS TO VISIBILITY.

* - THESE STATIONS ARE NOT NWS OR FAA STATIONS...AND ARE NOT SUBJECT
    TO NWS AND FAA QUALITY CONTROL.

TXZ171-172-183>190-300300-
TEXAS HILL COUNTRY AND EDWARDS PLATEAU

CITY           SKY/WX    TMP DP  RH WIND       PRES   REMARKS
JUNCTION       CLOUDY    80  66  62 W3        29.90R
*LLANO         PTCLDY    82  70  65 SE6       29.92R
BURNET         PTCLDY    78  71  79 SE5       29.92R
*HORSESHOE BAY PTCLDY    76  72  86 SE5       29.89R
*KERRVILLE     CLEAR     82  69  65 E10       29.90R
*FREDERICKSBRG PTCLDY    81  66  58 SE5       29.91R
*ROCKSPRINGS   CLOUDY    84  64  51 CALM      29.94R
*BOERNE STAGE  PTCLDY    82  66  57 SE5       29.89S
*CASTROVILLE   PTCLDY    89  66  46 E12       29.85R HX  91
HONDO          CLEAR     89  68  49 SE14G28   29.86R HX  93
*UVALDE        CLEAR     91  67  45 SE7       29.84R HX  93
DEL RIO        CLEAR     93  65  39 E8        29.82R HX  95
LAUGHLIN AFB   NOT AVBL
CARRIZO SPRGS  PTCLDY    90  68  48 SE10      29.80R HX  93
$$

TXZ173-191>194-202-209-217>225-228-300300-
CENTRAL AND SOUTH CENTRAL TEXAS

CITY           SKY/WX    TMP DP  RH WIND       PRES   REMARKS
GEORGETOWN     CLEAR     81  72  74 E5        29.92
AUSTIN/BERGSTM PTCLDY    75  69  81 W5        29.88R
AUSTIN/MABRY   PTCLDY    78  71  79 CALM      29.89R
*AUSTIN/EXEC   PTCLDY    77  73  88 NE3       29.90R
*LAGO VISTA    CLEAR     79  69  72 E7        29.93R
SAN MARCOS     PTCLDY    75  64  69 N3        29.88R
NEW BRAUNFELS  PTCLDY    81  68  64 NE6       29.84R
RANDOLPH AFB   PTCLDY    85  67  53 SE8       29.85R
PT SAN ANTONIO PTCLDY    87  69  56 SE15      29.83R HX  91
SAN ANTONIO    MOCLDY    87  67  51 E12       29.85R HX  90
STINSON FIELD  PTCLDY    86  69  56 SE10      29.82R HX  90
*PLEASANTON    PTCLDY    85  68  55 E6        29.83F
*LA GRANGE     PTCLDY    83  75  77 SE9       29.86R HX  91
*GIDDINGS      PTCLDY    81  70  68 SE6       29.90R
*GONZALES      PTCLDY    83  74  75 SE9       29.84R
$$

TXZ163>164-176>182-195>201-210>213-226-227-235-300300-
SOUTHEAST TEXAS

CITY           SKY/WX    TMP DP  RH WIND       PRES   REMARKS
COLLEGE STN    PTCLDY    81  72  74 SE14      29.88R
*BRYAN         PTCLDY   N/A N/A N/A E5        29.88R
*CALDWELL      PTCLDY    73  73 100 CALM      29.90R
*CROCKETT      PTCLDY    82  72  69 E7        29.92R
*BRENHAM       PTCLDY    81  76  84 SE7       29.88R
HUNTSVILLE     MOCLDY    80  71  74 SE5       29.90R
CONROE         CLOUDY    77  71  82 SE8       29.91R
HOUSTON BUSH   MOCLDY    77  72  83 E9        29.89R
HOUSTON HOBBY  CLOUDY    78  73  84 E5        29.87R
*HOUSTON SW AP CLOUDY    77  75  94 E7        29.88R
PEARLAND       CLOUDY    77  74  90 E8        29.89R
HOUSTON HOOKS  CLOUDY    79  71  76 E5        29.89R
ELLINGTON FLD  MOCLDY    77  77 100 E6        29.90R
SUGAR LAND     CLOUDY    78  74  87 E6        29.88R
*HOUSTON EXEC  CLOUDY    77  73  88 E6        29.90R
*CLEVELAND MUN CLOUDY    76  74  94 CALM      29.91R
*WHARTON       PTCLDY    77  73  86 E5        29.88R
$$

TXZ214>216-236>238-300300-
THE UPPER TEXAS COAST

CITY           SKY/WX    TMP DP  RH WIND       PRES   REMARKS
*ORANGE        DRIZZLE   76  76 100 E3        29.93R
PORT ARTHUR    LGT RAIN  77  74  90 E7        29.91R
GALVESTON      LGT RAIN  79  76  90 E8        29.88R
ANGLETON       CLOUDY    78  75  90 CALM      29.87R
*BAY CITY      PTCLDY    80  80  99 E3        29.86R HX  90
PALACIOS       NOT AVBL
$$

TXZ229>234-239>247-300300-
TEXAS COASTAL BEND AND RIO GRANDE PLAINS

CITY           SKY/WX    TMP DP  RH WIND       PRES   REMARKS
VICTORIA       PTCLDY    83  76  79 SE9       29.84S HX  91
*BEEVILLE      PTCLDY    82  71  67 E8        29.84R
ROCKPORT       PTCLDY    83  75  77 E9        29.83R HX  90
*PORT ARANSAS  PTCLDY    82  74  78 SE8       29.83R
*PORT LAVACA   PTCLDY    81  75  82 E9        29.84R
*INGLESIDE     PTCLDY    83  74  75 E3        29.83R
CORPUS CHRISTI MOCLDY    81  74  79 SE7       29.82R
CORPUS NAS     MOCLDY    83  77  82 E9        29.82R HX  92
*ROBSTOWN      PTCLDY    83  74  74 SE6       29.83R
ALICE          MOCLDY    81  76  84 SE6       29.82R
KINGSVILLE NAS MOCLDY    81  77  88 SE6       29.82S
COTULLA        PTCLDY    89  69  51 SE14      29.82R HX  93
*FAITH RANCH   PTCLDY    93  64  38 E12G17    29.80R HX  95
LAREDO         PTCLDY    89  73  59 E15       29.84R HX  96
$$

TXZ248>255-300300-
DEEP SOUTH TEXAS

CITY           SKY/WX    TMP DP  RH WIND       PRES   REMARKS
BROWNSVILLE    CLOUDY    81  79  94 E7        29.80R HX  90
PORT ISABEL    CLOUDY    82  77  84 E10       29.80R HX  90
*SOUTH PADRE     N/A     81  81 100 E10       29.81R HX  91
HARLINGEN      CLOUDY    77  76  96 NE3       29.80R
*HEBBRONVILLE  CLOUDY    84  72  68 E13       29.84R
MCALLEN        CLOUDY    77  73  87 CALM      29.81R
*WESLACO       NOT AVBL
FALFURRIAS     MOCLDY    78  68  73 E7        29.82R
EDINBURG       CLOUDY    77  73  85 CALM      29.81R
*ZAPATA        CLOUDY    85  72  64 E10G16    29.80R HX  91
$$

TXZ213>215-236>238-242>244-246-247-251-254-255-300300-
CMAN STATIONS

STATION/POSITION TIME  TEMP    WIND        PRES    WAVE
                       AIR SEA DIR/SP/G            HT/PER
                 (UTC) (F)     (DEG/KT/KT) (MB)    (FT/S)
SABINE PASS      0100   79 84  120/ 16/ 19 1012.1
SEA RIM ST PARK  0100   78     100/ 11/ 13 1012.5
NORTH JETTY/GLS  0100   78 84  120/ 21/ 23   N/A
EAGLE POINT      0100   80 83  110/ 16/ 19 1011.4
MORGANS POINT    0100   78     100/ 11/ 15 1011.3
MISSION/ARANSAS  0100   82     110/  8     1011.0
PORT O`CONNOR    0100           90/ 11/ 12   N/A
PORT ARANSAS     0100   82 85  120/  8/  9 1010.5
MALAQUITE BEACH  0100   82 85  100/ 10/ 11 1009.2
BAFFIN BAY       0100   82 83  110/  9/ 11 1009.4
PORT ISABEL      0100   81 82   80/  7/ 11 1009.4
$$

GMZ080-GMZ150>470-300300-
OFFSHORE BUOY REPORTS

STATION/POSITION TIME  TEMP    WIND        PRES    WAVE
                       AIR SEA DIR/SP/G            HT/PER
                 (UTC) (F)     (DEG/KT/KT) (MB)    (FT/S)
20 E GALVESTON   0200   78 86  150/ 12/ 16 1011.8    4/ 7
90 E PT ARANSAS  0200   83 86   80/  6/  8 1011.5    5/ 8
35 NE PT MANSFLD 0100   83 85  110/ 14/ 14 1008.8    4/ 7
200 E PT ISABEL  0100   81 85  110/ 16/ 19 1010.2    4/ 6
$$